Regional Weather Roundup
Issued by NWS

Home | Current Version | Previous Version | Text Only | Print | Product List | Glossary On
Versions: 1 2 3 4 5 6 7 8 9 10 11 12 13 14 15 16 17 18 19 20 21 22 23 24 25 26 27 28 29 30 31 32 33 34 35 36 37 38 39 40 41 42 43 44 45 46 47 48 49 50
000
ASUS43 KOAX 171510
RWRNE

WEATHER ROUNDUP FOR NEBRASKA
NATIONAL WEATHER SERVICE OMAHA NE
900 AM CST WED JAN 17 2018

NOTES: SATELLITE DATA IS BEING USED TO AUGMENT CLOUD COVER ABOVE
       12000 FEET.
       "FAIR" INDICATES FEW OR NO CLOUDS BELOW 12,000 FEET WITH NO
       SIGNIFICANT WEATHER AND/OR OBSTRUCTIONS TO VISIBILITY.


NEZ001>004-019>022-054>056-171600-
NEBRASKA PANHANDLE

CITY           SKY/WX    TMP DP  RH WIND       PRES   REMARKS
SCOTTSBLUFF    CLEAR      8   3  80 NW13      30.26R WCI  -8
ALLIANCE       CLEAR      3  -2  79 CALM      30.24R
CHADRON        CLEAR     10   4  76 SW9       30.25R WCI  -3
GORDON         FAIR      12   4  70 W7        30.22R WCI   1
KIMBALL        CLEAR     24  10  55 W14       30.23R WCI  12
SIDNEY         CLEAR     20   7  57 W8        30.24R WCI  10
$$

NEZ057>060-069>072-079>082-171600-
SOUTHWEST NEBRASKA

CITY           SKY/WX    TMP DP  RH WIND       PRES   REMARKS
NORTH PLATTE   CLEAR      8   1  73 CALM      30.33S
IMPERIAL       CLEAR      7   1  76 N5        30.30R WCI  -2
LEXINGTON      CLEAR     11   1  63 CALM      30.37S
MCCOOK         CLEAR      5   1  83 CALM      30.36S
OGALLALA       CLEAR      6   2  82 W3        30.29S
$$

NEZ005>010-023>029-035>040-094-171600-
NORTH CENTRAL NEBRASKA

CITY           SKY/WX    TMP DP  RH WIND       PRES   REMARKS
VALENTINE      CLEAR     10   3  73 SW7       30.25R WCI  -1
AINSWORTH      CLEAR     13   4  67 SW9       30.26R WCI   1
BROKEN BOW     CLEAR      9  -1  64 CALM      30.32S
O`NEILL        CLEAR     13   3  66 SW12      30.30S WCI  -1
ORD            CLEAR     11   2  67 CALM      30.35R
THEDFORD       CLEAR     10   2  70 CALM      30.28S
$$

NEZ041-046>049-061>064-073>077-083>087-171600-
SOUTH CENTRAL NEBRASKA

CITY           SKY/WX    TMP DP  RH WIND       PRES   REMARKS
GRAND ISLAND   CLOUDY    11   1  64 SW14      30.41S WCI  -5
AURORA         CLOUDY    10   1  69 SW13      30.43S WCI  -6
HASTINGS       CLOUDY     8  -1  66 SW12      30.43S WCI  -7
HEBRON         CLOUDY     8   2  76 SW5       30.52S WCI   0
HOLDREGE       CLOUDY     9   1  71 S9        30.39S WCI  -5
KEARNEY        CLOUDY     7  -1  70 SW10      30.41R WCI  -8
YORK           CLOUDY     7   1  78 SW15      30.45S WCI -11
$$

NEZ011>018-030>034-042>045-171600-
NORTHEAST NEBRASKA

CITY           SKY/WX    TMP DP  RH WIND       PRES   REMARKS
NORFOLK        CLOUDY    10   1  67 SW13      30.37F WCI  -5
ALBION         CLOUDY    10   2  70 S7        30.38S WCI   0
BLAIR          CLOUDY    12   4  71 S14       30.48R WCI  -4
COLUMBUS       CLOUDY    13   3  64 SW12      30.45S WCI  -1
FREMONT        CLOUDY    10   2  71 S12       30.48S WCI  -5
TEKAMAH        CLOUDY    10   2  69 S15       30.48F WCI  -7
WAYNE          CLOUDY    12   1  62 SW16      30.38F WCI  -5
$$

NEZ050>053-065>068-078-088>093-171600-
SOUTHEAST NEBRASKA

CITY           SKY/WX    TMP DP  RH WIND       PRES   REMARKS
LINCOLN        CLOUDY    10   2  69 SW8       30.53S WCI  -2
OMAHA EPPLEY   CLOUDY     5   0  79 SE10      30.54S WCI -10
BEATRICE       CLOUDY     6   1  80 S7        30.54F WCI  -6
FALLS CITY     CLOUDY     2  -1  88 SE3       30.60R
NEBRASKA CITY  MOSUNNY    8   3  83 SW8       30.56R WCI  -5
PLATTSMOUTH    CLOUDY     4   0  83 S10       30.53F WCI -12
$$

NEZ044-045-051>053-067-171600-
OMAHA AREA

CITY           SKY/WX    TMP DP  RH WIND       PRES   REMARKS
OMAHA EPPLEY   CLOUDY     5   0  79 SE10      30.54S WCI -10
BLAIR          CLOUDY    12   4  71 S14       30.48R WCI  -4
FREMONT        CLOUDY    10   2  71 S12       30.48S WCI  -5
MILLARD        CLOUDY    11   5  77 S5        30.53S WCI   2
OFFUTT AFB     CLOUDY     3  -1  83 SE5       30.54S WCI  -7
PLATTSMOUTH    CLOUDY     4   0  83 S10       30.53F WCI -12
WAHOO          FAIR       9   3  74 S9        30.50S WCI  -4
$$



USA.gov is the U.S. government's official web portal to all federal, state and local government web resources and services.